Simultaneous Nadir Overpasses (SNOs) Predictions

Prediction of SNOs between AQUA and METOP-B Satellite Orbit:

Table of predicted SNOs for the next 14.0 days since TLE Epoch: 10/24/2014
Index Date (AQUA) Time (AQUA) Lat,Lon (AQUA) SZA (AQUA ) Date (METOP-B) Time (METOP-B) Lat,Lon (METOP-B) SZA (METOP-B ) Distance(km) Time Diff (sec)
1 10/25/2014 11:17:46 73.73, 4.99 85.80 10/25/2014 11:16:56 73.71, 4.94 85.79 2.45 50
2 10/25/2014 12:07:13 -73.81, 172.45 94.11 10/25/2014 12:07:36 -73.78, 172.43 94.14 3.52 23
3 10/28/2014 06:52:04 73.73, 71.42 86.75 10/28/2014 06:51:23 73.73, 71.37 86.76 1.42 41
4 10/28/2014 07:41:31 -73.81,-121.11 93.16 10/28/2014 07:42:03 -73.80,-121.12 93.16 0.85 32
5 10/31/2014 02:26:20 73.75, 137.80 87.70 10/31/2014 02:25:49 73.73, 137.78 87.69 2.10 31
6 10/31/2014 03:15:47 -73.83, -54.72 92.21 10/31/2014 03:16:29 -73.81, -54.70 92.23 1.65 42
7 11/02/2014 21:10:56 -73.14, 37.89 92.03 11/02/2014 21:09:49 -73.08, 35.37 92.07 81.77 67
8 11/02/2014 22:00:35 73.74,-155.74 88.60 11/02/2014 22:00:16 73.73,-155.83 88.58 3.27 19
9 11/02/2014 22:50:02 -73.81, 11.75 91.33 11/02/2014 22:50:56 -73.81, 11.70 91.33 1.55 54
10 11/05/2014 16:45:19 -73.62, 103.34 90.68 11/05/2014 16:44:06 -73.57, 102.87 90.72 15.69 73
11 11/05/2014 17:34:49 73.76, -89.32 89.48 11/05/2014 17:34:42 73.76, -89.35 89.49 1.12 7
12 11/05/2014 18:24:16 -73.82, 78.17 90.45 11/05/2014 18:25:22 -73.85, 78.19 90.42 3.38 66




NCC Satellite Simultaneous Nadir Overpasses (SNOs) Prediction Service
